sat.trackr.live / text

‹ back to catalog

SHIJIAN-6 02A (SJ-6 02A)

NORAD 29505 · 2006-046A

PAYLOAD ACTIVE UNKNOWN

§ Identity

Operator
Country
PRC
Launch date
2006-10-23
Launch site
TAISC
Launch vehicle
Mass (kg)
RCS (m²)
1.16

Purposes: science

External: N2YO · Heavens-Above · Gunter

§ Orbital elements

Epoch: 2026-09-19T22:01:41.120256Z

Period
94.87 min
Inclination
97.6284°
Eccentricity
0.0003606
Mean motion
15.17843723 rev/d
Perigee alt
509.9 km
Apogee alt
514.8 km
Semi-major
6,890.5 km
B*
1.8817e-4
RAAN
304.7154°
Arg perigee
145.9590°
Mean anomaly
214.1875°
Rev number
8,663

§ Raw data

SHIJIAN-6 02A (SJ-6 02A)1 29505U 06046A   26262.91783704  .00003739  00000+0  18817-3 0  99932 29505  97.6284 304.7154 0003606 145.9590 214.1875 15.17843723 86633

JSON: /api/v1/satellites/29505 · /tle

For live sub-satellite position, see the globe view (requires WebGL).

§ Visibility from observer

Set your observer location to see the next 7 days of passes ≥ 10°. The values pass through the URL so the page stays shareable.

No JS? Fill the form by hand. The geolocation button needs JavaScript.

§ Radio — SatNOGS DB

ModeDescriptionDownlinkUplink
BPSK S-band telemetry 2.265 GHz

1 transmitter · refreshed weekly from db.satnogs.org